sat.trackr.live / text

‹ back to catalog

QIANFAN-177

NORAD 69394 · 2026-124N

PAYLOAD ACTIVE UNKNOWN

§ Identity

Operator
Country
PRC
Launch date
2026-06-04
Launch site
TAISC
Launch vehicle
Mass (kg)
RCS (m²)

External: N2YO · Heavens-Above · Gunter

§ Orbital elements

Epoch: 2026-09-20T03:28:15.575808Z

Period
106.59 min
Inclination
89.0066°
Eccentricity
0.0002136
Mean motion
13.51030442 rev/d
Perigee alt
1,066.9 km
Apogee alt
1,070.1 km
Semi-major
7,446.6 km
B*
1.3173e-4
RAAN
351.9969°
Arg perigee
109.3600°
Mean anomaly
250.7782°
Rev number
1,489

§ Raw data

QIANFAN-1771 69394U 26124N   26263.14462472  .00000097  00000+0  13173-3 0  99982 69394  89.0066 351.9969 0002136 109.3600 250.7782 13.51030442 14891

JSON: /api/v1/satellites/69394 · /tle

For live sub-satellite position, see the globe view (requires WebGL).

§ Visibility from observer

Set your observer location to see the next 7 days of passes ≥ 10°. The values pass through the URL so the page stays shareable.

No JS? Fill the form by hand. The geolocation button needs JavaScript.